Regional Weather Roundup
Issued by NWS

Home | Current Version | Previous Version | Graphics & Text | Print | Product List | Glossary On
Versions: 1 2 3 4 5 6 7 8 9 10 11 12 13 14 15 16 17 18 19 20 21 22 23 24 25 26 27 28 29 30 31 32 33 34 35 36 37 38 39 40 41 42 43 44 45 46 47 48 49 50
000
ASUS43 KFSD 302202
RWRSD

WEATHER ROUNDUP FOR SOUTH DAKOTA
NATIONAL WEATHER SERVICE SIOUX FALLS SD
500 PM CDT SAT MAY 30 2015

NOTE: "FAIR" INDICATES FEW OR NO CLOUDS BELOW 12,000 FEET WITH NO
SIGNIFICANT WEATHER AND/OR OBSTRUCTIONS TO VISIBILITY.


SDZ001>005-009-010-012>017-302300-
NORTHWEST AND NORTH CENTRAL SOUTH DAKOTA

CITY           SKY/WX    TMP DP  RH WIND       PRES   REMARKS
BUFFALO          N/A     63  40  42 SE24      30.07F
FAITH            N/A     59  38  45 SE17G31   30.21F
MOBRIDGE       SUNNY     61  33  35 SE10      30.24F
$$

SDZ012>016-024>037-041>051-057-063-072>074-302300-
SOUTHWEST AND SOUTH CENTRAL SOUTH DAKOTA

CITY           SKY/WX    TMP DP  RH WIND       PRES   REMARKS
RAPID CTY ARPT SUNNY     65  45  48 SE17G24   30.16F
PIERRE         SUNNY     60  37  42 E8        30.24F
CUSTER         SUNNY     57  43  59 SE10      30.21F
ELLSWORTH AFB  SUNNY     65  46  51 SE18G29   30.14F
PHILIP         SUNNY     63  39  41 SE17      30.21F
PINE RIDGE     SUNNY     66  39  37 SE9       30.18F
WINNER         FAIR      63  34  33 NE8       30.25F
$$

SDZ004>011-016>023-039-040-302300-
NORTHEAST SOUTH DAKOTA

CITY           SKY/WX    TMP DP  RH WIND       PRES   REMARKS
ABERDEEN       MOSUNNY   57  33  40 NE9       30.29F
WATERTOWN      SUNNY     56  35  45 N12G17    30.27F
BROOKINGS      SUNNY     55  37  50 NE10      30.27S
SISSETON         N/A     56  36  47 N5        30.29F
$$

SDZ017-020-022-023-036>040-048>070-302300-
SOUTHEAST SOUTH DAKOTA

CITY           SKY/WX    TMP DP  RH WIND       PRES   REMARKS
SIOUX FALLS    MOSUNNY   62  42  47 NE13      30.23F
HURON          SUNNY     62  36  37 VRB6      30.26F
CHAMBERLAIN    SUNNY     60  31  33 NE3       30.26F
MITCHELL       SUNNY     64  37  36 N8        30.25F
YANKTON        SUNNY     64  41  42 N10G17    30.22S
$$

ABBREVIATIONS USED IN REMARKS
   TC - TEMPERATURE IN CELSIUS
  WCI - WIND CHILL INDEX
   HX - HEAT INDEX
  VSB - VISIBILITY




USA.gov is the U.S. government's official web portal to all federal, state and local government web resources and services.